Location: Bottom School (historical)
(37.9078°N, 89.3593°W)
Time: 18:20:08
(UTC+00:00)

SL-4 R/B - Pass Details

Date: 03 July 2022
Orbit: 425 x 653 km, 51.6° (Epoch: 15 August)

Event Time Altitude Azimuth Distance (km) Brightness Sun altitude
Rises 10:01:56 0° 314° (NW) 2,574 5.3 -7.1°
Reaches altitude 10° 10:05:09 10° 344° (NNW) 1,747 4.9 -6.6°
Maximum altitude 10:07:01 13° 12° (NNE) 1,600 5.2 -6.3°
Drops below altitude 10° 10:08:58 10° 41° (NE) 1,815 6.3 -6.0°
Sets 10:12:26 0° 69° (ENE) 2,772 7.6 -5.4°
